Regional Weather Roundup
Issued by NWS Grand Forks, ND

Home | Current Version | Previous Version | Graphics & Text | Print | Product List | Glossary On
Versions: 1 2 3 4 5 6 7 8 9 10 11 12 13 14 15 16 17 18 19 20 21 22 23 24 25 26 27 28 29 30 31 32 33 34 35 36 37 38 39 40 41 42 43 44 45 46 47 48 49 50
000
ASUS43 KFGF 231031
RWRFGF
PRAIRIE TO PINES  WEATHER ROUNDUP
NATIONAL WEATHER SERVICE EASTERN NORTH DAKOTA/GRAND FORKS ND
500 AM CDT SAT JUL 23 2016

 **SATELLITE DATA USED TO AUGMENT SKY COVER AT AUTOMATED STATIONS**
 *****  WEATHER ACROSS EASTERN NORTH DAKOTA  *****

CITY           SKY/WX    TMP DP  RH WIND       PRES   REMARKS
GRAND FORKS    CLOUDY    73  61  65 E13       29.84F
GRAND FRKS AFB CLOUDY    70  63  78 SE8       29.86F
GRAND FRKS NWS   N/A     70 N/A N/A SE15        N/A
DEVILS LAKE    CLOUDY    72  62  71 CALM      29.91R
FARGO          CLOUDY    77  61  57 SE13G23   29.85F
WAHPETON ARPT  CLOUDY    72  64  78 SE8       29.88F
$$

 ***** WEATHER ACROSS CENTRAL AND WESTERN NORTH DAKOTA  *****

CITY           SKY/WX    TMP DP  RH WIND       PRES   REMARKS
BISMARCK       CLOUDY    71  63  75 NE5       29.85R
MINOT          CLOUDY    70  65  84 SE10      29.78F THUNDER
JAMESTOWN      CLOUDY    69  63  81 CALM      29.88F
MINOT AFB      CLOUDY    66  65  94 S13       29.78F
GARRISON         N/A     68  63  84 E12       29.82F
WILLISTON      LGT RAIN  67  62  84 SE18G28   29.76F
DICKINSON      PTCLDY    62  59  90 E10       29.82F
HETTINGER      CLEAR     65  60  84 SE13      29.83F
$$

 *****  OTHER AIRPORT OBSERVATIONS IN OUR AREA  *****

CITY           SKY/WX    TMP DP  RH WIND       PRES   REMARKS
WALHALLA       FAIR      66  63  88 SE5       29.89S
GRAFTON AIRPOR FAIR      66  63  88 E10       29.88F
VALLEY CITY AR   N/A     70  70 100 N7        29.90F
CANDO          FAIR      66  64  94 SE6       29.91S
CAVALIER APRT  FAIR      66  61  82 E3        29.87F
GWINNER        FAIR      72  70  94 E8        29.87F
SHEYENNE NWR     N/A     72  67  85 S3        29.95
ROLLA            N/A     66  61  82 S13       29.90S
 ***** THE ABOVE OBSERVATIONS ARE NON NWS ARE NOT QUALITY
       CONTROLLED AND MAY MIS-REPORT RAIN FOR SNOW...
$$

  *****  WEATHER ACROSS NORTHERN MINNESOTA  *****

CITY           SKY/WX    TMP DP  RH WIND       PRES   REMARKS
FLAG ISLAND    MOCLDY    68  61  77 E3        29.97F
WARROAD        CLOUDY    66  63  88 E6        29.97F
ROSEAU         CLOUDY    63  57  82 E9        29.94F
HALLOCK        CLOUDY    66  61  82 E9        29.89F
THF RVR FALLS  CLOUDY    66  60  81 SE8       29.95F
BAUDETTE       CLOUDY    61  60  97 CALM      29.99F
WASKISH        MOCLDY    61  59  94 E5        29.97F
CROOKSTON      CLOUDY    70  63  78 E13       29.86F
STEPHEN NDAWN    N/A     64  61  88 E3          N/A
GREENBUSH NDAW   N/A     63  59  88 E5          N/A
$$
  *****  WEATHER ACROSS CENTRAL AND WEST MINNESOTA  *****

CITY           SKY/WX    TMP DP  RH WIND       PRES   REMARKS
FOSSTON        CLOUDY    66  63  88 E6        29.95F
BEMIDJI        CLOUDY    66  63  88 SE6       29.97F
PARK RAPIDS    MOCLDY    71  63  75 SE3       29.98F
ELBOW LAKE     FAIR      73  69  87 SE13      29.91F
WADENA         CLOUDY    68  63  83 E8        29.94F
DETROIT LAKES  CLOUDY    72  59  64 E7        29.94F
MOORHEAD       CLOUDY    75  63  64 SE9       29.87S
FERGUS FALLS   CLOUDY    75  64  69 E8        29.91F
MORRIS MN      CLOUDY    73  66  78 E8        29.91F
STAPLES        CLOUDY    70  63  78 SE3       29.97F
$$
  *****  WEATHER ELSEWHERE ACROSS MINNESOTA  *****

CITY           SKY/WX    TMP DP  RH WIND       PRES   REMARKS
DULUTH         CLOUDY    64  59  83 CALM      30.01F
INTRNTL FALLS  CLOUDY    56  55  97 CALM      29.99F
ELY            MOCLDY    55  54  94 CALM      30.02F
CLOQUET        MOCLDY    63  57  82 CALM      30.00F
WHEATON        CLOUDY    73  70  88 SE6       29.92F
BRAINERD       PTCLDY    68  63  84 CALM      29.99F
HIBBING        CLEAR     54  54 100 CALM      30.00F FOG
ALEXANDRIA     PTCLDY    73  68  84 E10       29.97F
SAINT CLOUD    MOCLDY    71  67  87 E6        29.97S
MINNEAPOLIS    CLOUDY    77  66  68 E5        29.96S
$$

  *****  WEATHER ACROSS SOUTH DAKOTA  *****

CITY           SKY/WX    TMP DP  RH WIND       PRES   REMARKS
SIOUX FALLS    CLOUDY    80  77  90 E8        29.86F
BROOKINGS      CLOUDY    78  76  93 E9        29.88F
WATERTOWN      CLOUDY    76  70  82 E7        29.90F
HURON          CLOUDY    77  74  90 E8        29.80F
SISSETON         N/A     71  69  93 S8        29.89F
ABERDEEN       MOCLDY    73  68  84 NE8       29.84F
MITCHELL       TSTM      72  69  90 S15G25    29.80F
PIERRE         CLOUDY    77  71  82 E7        29.82F
MOBRIDGE       LGT RAIN  70  63  78 SE17      29.78F
RAPID CITY     PTCLDY    67  56  67 S8        29.88F
$$

  *****  SOME WEATHER IN NEARBY STATES *****

CITY           SKY/WX    TMP DP  RH WIND       PRES   REMARKS
GLASGOW MT     MOCLDY    65  57  75 W16       29.84R
GREAT FALLS MT CLEAR     59  40  49 SW13      30.02F
CHEYENNE WY    MOCLDY    66  47  50 W9        30.14F
SCOTTSBLUFF NE PTCLDY    64  60  87 CALM      29.95F
OMAHA NE       CLOUDY    83  73  72 SE13      29.86F
DES MOINES IA  MOCLDY    80  76  87 S8        29.91R
DAVENPORT IA   CLEAR     74  72  93 SE3       29.98F FOG
CHICAGO IL     MOCLDY    78  75  90 W3        29.97F
EAU CLAIRE WI  FOG       66  65  96 CALM      29.98R VSB 1
LA CROSSE WI   MOCLDY    75  74  96 E5        29.96S
$$

  *****  SOME NATIONAL WEATHER *****

CITY           SKY/WX    TMP DP  RH WIND       PRES   REMARKS
LA GUARDIA NY  PTCLDY    84  64  50 NW12      29.83R
RALEIGH NC     PTCLDY    73  70  90 W3        29.99R
ATLANTA GA     PTCLDY    77  72  84 SW5       30.03F
NEW ORLEANS LA PTCLDY    81  76  84 CALM      29.99S
OKLAHOMA CITY  CLEAR     72  68  87 S7        29.96F
ALBUQUERQUE NM PTCLDY    77  51  40 W3        30.17F
SALT LAKE CITY PTCLDY    69  39  33 W6        30.09S
LOS ANGELES CA MOCLDY    73  60  63 E7        29.80S
BOISE ID       CLEAR     63  42  46 W10       30.11S
SEATTLE WA     MOCLDY    59  56  89 SW3       30.27F
$$

*** WEATHER ACROSS MANITOBA...SASKATCHEWAN AND ONTARIO ***
                ***ONTARIO***

CITY           SKY/WX    TMP DP  RH WIND       PRES   REMARKS
GERALDTON      MOCLDY    59  59 100 NW3       29.99S
THUNDER BAY    PTCLDY    59  57  94 W5        29.99R
SIOUX LOOKOUT  MOCLDY    55  54  94 CALM      30.02R
TORONTO        PTCLDY    73  57  56 NW10      29.90R
BIG TROUT LK   CLEAR     52  46  82 SE5       30.03F
PICKLE LAKE    NOT AVBL
DRYDEN         CLEAR     61  57  88 NE3       30.02F
KENORA         MOCLDY    64  54  68 E8        30.00F
$$
                *** MANITOBA***

CITY           SKY/WX    TMP DP  RH WIND       PRES   REMARKS
BRANDON        MOCLDY    66  63  88 SE9       29.86F
DAUPHIN        LGT RAIN  63  61  94 NE10      29.87F
ISLAND LAKE    PTCLDY    55  55 100 CALM      29.97F
PILOT MOUND      N/A     64  63  94 SE7         N/A
THE PAS        CLOUDY    61  59  94 SE8       29.81F
THOMPSON       PTCLDY    52  46  82 SE3       29.87F
WINNIPEG       MOCLDY    64  59  82 S10       29.91F
LYNN LAKE      CLOUDY    54  52  94 MISG      29.74F
CHURCHILL      MOCLDY    46  43  87 S10       29.88F
GILLAM         PTCLDY    45  39  81 S6        29.93F
$$
                ***SASKATCHEWAN***

CITY           SKY/WX    TMP DP  RH WIND       PRES   REMARKS
ESTEVAN        MOCLDY    66  64  94 S6        29.84R
KINDERSLEY     TSTM      59  57  94 N5        29.79F
LLOYDMINSTER   LGT RAIN  59  54  82 W12       29.81F
PRINCE ALBERT  LGT RAIN  63  63 100 NE3       29.79
REGINA         MOCLDY    63  59  88 E20G28    29.73F
YORKTON        MOCLDY    61  57  88 E13G18    29.82F
N. BATTLEFORD  CLOUDY    57  57 100 NW6       29.81F
LA RONGE       MOCLDY    64  57  77 S7        29.77S
SASKATOON      LGT RAIN  64  63  94 SE7       29.77F
SWIFT CURRENT  CLOUDY    59  59 100 W14G20    29.75F
$$
NOTE: THESE ARE AUTOMATED STATIONS WITH LIMITED QUALITY CONTROL
      "FAIR" INDICATES FEW OR NO CLOUDS BELOW 12,000 FEET WITH NO
      SIGNIFICANT WEATHER AND/OR OBSTRUCTIONS TO VISIBILITY.
      SKY/WX - SKY CONDITION AND SIGNIFICANT WEATHER.
      TMP - AIR TEMPERATURE.    DP   - DEWPOINT TEMPERATURE.
      RH  - RELATIVE HUMIDITY.  PRES - PRESSURE.
      HX  - HEAT INDEX.         WCI  - WIND CHILL INDEX.
$




USA.gov is the U.S. government's official web portal to all federal, state and local government web resources and services.